QPF
0.01 0.01 0.01 0.01 0.01 0.02 0.02 0.02 0.03 0.05 0.06 0.08 0.09 0.10 0.09 0.06 0.04 0.04 0.04 0.03 0.03 0.03 0.02 0.02 0.01 0.01 0.02 0.02 0.02 0.02 0.02 0.01 0.01 0.01 0.01 0.01 0.01 0.00 0.00 0.00 0.01 0.01 0.02
0.01 0.01 0.01 0.00 0.00 0.01 0.02 0.02 0.02 0.03 0.04 0.04 0.05 0.06 0.07 0.06 0.05 0.04 0.03 0.03 0.03 0.03 0.02 0.02 0.01 0.01 0.01 0.02 0.03 0.03 0.02 0.02 0.01 0.01 0.01 0.01 0.01 0.00 0.00 0.00 0.01 0.01 0.01
0.01 0.01 0.01 0.01 0.00 0.01 0.01 0.02 0.02 0.02 0.03 0.04 0.04 0.04 0.04 0.05 0.06 0.04 0.03 0.02 0.02 0.02 0.03 0.02 0.02 0.02 0.02 0.02 0.03 0.03 0.03 0.02 0.02 0.01 0.01 0.01 0.00 0.00 0.00 0.00 0.01 0.01 0.01
0.01 0.01 0.01 0.01 0.01 0.01 0.01 0.02 0.03 0.02 0.02 0.03 0.04 0.03 0.03 0.03 0.04 0.04 0.03 0.02 0.02 0.02 0.02 0.02 0.02 0.02 0.02 0.02 0.03 0.03 0.03 0.03 0.03 0.02 0.01 0.01 0.01 0.00 0.00 0.00 0.01 0.01 0.01
0.01 0.01 0.01 0.01 0.01 0.01 0.01 0.02 0.04 0.03 0.02 0.02 0.03 0.03 0.03 0.02 0.03 0.03 0.03 0.03 0.02 0.02 0.01 0.02 0.02 0.02 0.02 0.02 0.03 0.02 0.02 0.03 0.04 0.03 0.02 0.02 0.01 0.01 0.01 0.00 0.01 0.00 0.00
0.01 0.01 0.01 0.02 0.01 0.01 0.02 0.03 0.04 0.04 0.03 0.02 0.03 0.03 0.03 0.02 0.03 0.03 0.03 0.02 0.02 0.02 0.02 0.02 0.02 0.02 0.03 0.03 0.03 0.03 0.03 0.03 0.03 0.04 0.04 0.02 0.02 0.01 0.01 0.01 0.01 0.01 0.01
0.01 0.01 0.02 0.03 0.02 0.01 0.02 0.02 0.03 0.04 0.04 0.03 0.03 0.03 0.03 0.03 0.04 0.04 0.03 0.02 0.02 0.02 0.02 0.02 0.02 0.02 0.02 0.03 0.03 0.03 0.03 0.03 0.03 0.03 0.03 0.03 0.02 0.02 0.02 0.02 0.02 0.01 0.01
0.02 0.01 0.02 0.03 0.02 0.02 0.02 0.02 0.03 0.03 0.04 0.03 0.02 0.03 0.03 0.04 0.04 0.04 0.04 0.03 0.02 0.02 0.02 0.02 0.02 0.02 0.03 0.04 0.04 0.04 0.03 0.03 0.02 0.02 0.02 0.02 0.02 0.03 0.03 0.03 0.03 0.02 0.01
0.02 0.02 0.02 0.02 0.03 0.03 0.02 0.02 0.02 0.03 0.03 0.03 0.02 0.02 0.03 0.03 0.04 0.04 0.04 0.03 0.03 0.03 0.03 0.03 0.03 0.03 0.04 0.05 0.05 0.04 0.03 0.02 0.02 0.02 0.02 0.02 0.03 0.03 0.04 0.04 0.04 0.04 0.03
0.03 0.02 0.02 0.02 0.02 0.03 0.03 0.03 0.02 0.03 0.03 0.03 0.03 0.02 0.02 0.02 0.02 0.02 0.03 0.03 0.03 0.03 0.03 0.03 0.03 0.03 0.03 0.03 0.03 0.03 0.03 0.03 0.02 0.02 0.02 0.01 0.02 0.02 0.03 0.04 0.04 0.04 0.03
0.02 0.02 0.02 0.02 0.02 0.03 0.04 0.03 0.03 0.03 0.03 0.04 0.03 0.02 0.02 0.02 0.01 0.01 0.01 0.01 0.02 0.02 0.02 0.02 0.02 0.02 0.02 0.02 0.02 0.03 0.03 0.03 0.03 0.02 0.02 0.01 0.01 0.01 0.02 0.03 0.04 0.05 0.05
0.01 0.02 0.02 0.02 0.01 0.02 0.03 0.03 0.03 0.04 0.04 0.04 0.03 0.03 0.03 0.02 0.01 0.01 0.01 0.01 0.01 0.01 0.02 0.02 0.02 0.02 0.02 0.02 0.02 0.02 0.03 0.03 0.03 0.02 0.02 0.01 0.01 0.01 0.01 0.02 0.03 0.03 0.04
0.01 0.01 0.02 0.02 0.01 0.01 0.02 0.03 0.03 0.04 0.04 0.04 0.04 0.03 0.03 0.02 0.01 0.02 0.02 0.01 0.01 0.01 0.01 0.02 0.02 0.02 0.01 0.01 0.02 0.02 0.02 0.02 0.03 0.03 0.02 0.01 0.01 0.01 0.01 0.01 0.02 0.03 0.03
0.01 0.01 0.01 0.02 0.01 0.01 0.02 0.02 0.03 0.03 0.04 0.04 0.04 0.03 0.03 0.02 0.02 0.01 0.02 0.02 0.02 0.01 0.01 0.01 0.01 0.02 0.02 0.01 0.01 0.01 0.02 0.02 0.03 0.03 0.03 0.02 0.01 0.01 0.01 0.01 0.02 0.03 0.03
0.01 0.01 0.01 0.02 0.02 0.01 0.01 0.02 0.03 0.03 0.03 0.03 0.03 0.03 0.03 0.02 0.02 0.02 0.02 0.03 0.02 0.02 0.01 0.01 0.01 0.02 0.02 0.02 0.01 0.01 0.01 0.02 0.03 0.03 0.03 0.03 0.02 0.02 0.01 0.01 0.02 0.03 0.03
0.01 0.01 0.01 0.02 0.02 0.01 0.01 0.02 0.03 0.03 0.03 0.03 0.03 0.03 0.03 0.03 0.03 0.02 0.03 0.03 0.03 0.03 0.02 0.02 0.02 0.01 0.02 0.02 0.02 0.01 0.01 0.02 0.02 0.03 0.03 0.04 0.03 0.02 0.02 0.02 0.01 0.02 0.03
0.01 0.02 0.02 0.02 0.02 0.01 0.01 0.01 0.02 0.02 0.03 0.03 0.03 0.03 0.03 0.03 0.03 0.03 0.03 0.03 0.04 0.04 0.03 0.02 0.02 0.01 0.01 0.02 0.02 0.02 0.02 0.02 0.02 0.03 0.04 0.04 0.04 0.03 0.02 0.02 0.02 0.02 0.02
0.01 0.02 0.02 0.02 0.02 0.02 0.02 0.02 0.02 0.02 0.02 0.02 0.02 0.03 0.03 0.03 0.03 0.03 0.04 0.04 0.04 0.03 0.03 0.02 0.02 0.01 0.01 0.02 0.02 0.02 0.02 0.02 0.02 0.03 0.03 0.04 0.04 0.04 0.03 0.02 0.02 0.02 0.02
0.01 0.01 0.02 0.02 0.02 0.02 0.02 0.02 0.02 0.02 0.02 0.02 0.02 0.02 0.03 0.03 0.03 0.03 0.04 0.04 0.03 0.03 0.02 0.02 0.02 0.02 0.02 0.02 0.02 0.03 0.03 0.03 0.03 0.03 0.03 0.03 0.04 0.04 0.03 0.02 0.02 0.02 0.02
0.01 0.02 0.02 0.02 0.02 0.03 0.03 0.03 0.02 0.03 0.02 0.02 0.02 0.02 0.02 0.03 0.02 0.02 0.02 0.03 0.03 0.03 0.02 0.02 0.02 0.02 0.02 0.02 0.02 0.03 0.03 0.02 0.02 0.03 0.03 0.03 0.04 0.04 0.03 0.03 0.02 0.02 0.02
0.01 0.02 0.02 0.02 0.02 0.03 0.03 0.03 0.03 0.03 0.03 0.02 0.02 0.02 0.02 0.02 0.02 0.02 0.02 0.02 0.02 0.03 0.03 0.03 0.03 0.02 0.02 0.03 0.03 0.03 0.03 0.02 0.02 0.03 0.03 0.03 0.03 0.04 0.03 0.03 0.02 0.02 0.02
0.01 0.02 0.02 0.02 0.02 0.02 0.03 0.03 0.03 0.03 0.03 0.02 0.02 0.01 0.01 0.02 0.02 0.02 0.02 0.02 0.02 0.02 0.03 0.04 0.03 0.03 0.03 0.03 0.03 0.03 0.03 0.03 0.03 0.03 0.03 0.04 0.04 0.04 0.03 0.03 0.03 0.03 0.02
0.01 0.01 0.02 0.02 0.02 0.02 0.02 0.02 0.02 0.02 0.02 0.02 0.02 0.01 0.01 0.01 0.01 0.02 0.02 0.02 0.02 0.02 0.02 0.03 0.03 0.03 0.03 0.03 0.03 0.03 0.03 0.03 0.03 0.03 0.04 0.04 0.04 0.04 0.03 0.03 0.03 0.03 0.03
0.01 0.01 0.01 0.01 0.01 0.01 0.01 0.02 0.02 0.02 0.02 0.02 0.02 0.02 0.02 0.02 0.01 0.01 0.02 0.02 0.02 0.01 0.02 0.02 0.02 0.02 0.02 0.02 0.02 0.02 0.02 0.03 0.03 0.03 0.04 0.04 0.04 0.04 0.04 0.03 0.03 0.03 0.03
0.01 0.01 0.01 0.01 0.01 0.01 0.01 0.01 0.01 0.01 0.01 0.02 0.02 0.02 0.02 0.02 0.01 0.01 0.01 0.02 0.02 0.02 0.01 0.02 0.02 0.02 0.02 0.02 0.02 0.02 0.02 0.02 0.02 0.03 0.03 0.03 0.04 0.04 0.04 0.03 0.03 0.03 0.03
0.01 0.01 0.01 0.01 0.01 0.01 0.01 0.01 0.01 0.01 0.01 0.01 0.02 0.02 0.02 0.02 0.02 0.02 0.02 0.02 0.02 0.02 0.02 0.02 0.02 0.02 0.02 0.02 0.02 0.02 0.02 0.02 0.02 0.02 0.03 0.03 0.03 0.04 0.04 0.03 0.03 0.03 0.02
MSLP
1005.76 1006.60 1007.42 1008.22 1009.02 1009.83 1010.68 1011.56 1012.47 1013.39 1014.27 1015.08 1015.80 1016.42 1016.91 1017.31 1017.63 1017.89 1018.13 1018.36 1018.59 1018.82 1019.04 1019.23 1019.38 1019.47 1019.50 1019.47 1019.40 1019.28 1019.15 1019.01 1018.89 1018.78 1018.69 1018.61 1018.54 1018.46 1018.36 1018.23 1018.05 1017.82 1017.53
1005.62 1006.39 1007.18 1007.97 1008.77 1009.59 1010.43 1011.29 1012.17 1013.04 1013.88 1014.66 1015.35 1015.95 1016.45 1016.86 1017.20 1017.49 1017.75 1018.00 1018.24 1018.47 1018.70 1018.90 1019.06 1019.19 1019.26 1019.29 1019.27 1019.22 1019.14 1019.05 1018.95 1018.85 1018.73 1018.61 1018.48 1018.33 1018.15 1017.93 1017.68 1017.38 1017.03
1005.51 1006.20 1006.95 1007.74 1008.54 1009.37 1010.21 1011.07 1011.92 1012.75 1013.55 1014.28 1014.94 1015.51 1016.01 1016.43 1016.79 1017.10 1017.39 1017.66 1017.92 1018.16 1018.40 1018.61 1018.80 1018.95 1019.07 1019.15 1019.19 1019.21 1019.19 1019.15 1019.08 1018.99 1018.87 1018.72 1018.53 1018.30 1018.05 1017.75 1017.41 1017.04 1016.63
1005.42 1006.03 1006.74 1007.51 1008.33 1009.18 1010.04 1010.89 1011.73 1012.53 1013.29 1013.98 1014.60 1015.15 1015.63 1016.06 1016.43 1016.78 1017.09 1017.39 1017.67 1017.94 1018.19 1018.42 1018.62 1018.80 1018.95 1019.07 1019.17 1019.24 1019.28 1019.29 1019.26 1019.18 1019.06 1018.88 1018.65 1018.38 1018.05 1017.68 1017.27 1016.83 1016.35
1005.34 1005.88 1006.55 1007.32 1008.16 1009.03 1009.91 1010.78 1011.61 1012.39 1013.11 1013.76 1014.35 1014.88 1015.35 1015.78 1016.17 1016.54 1016.89 1017.22 1017.53 1017.83 1018.10 1018.34 1018.56 1018.76 1018.93 1019.09 1019.22 1019.33 1019.40 1019.45 1019.44 1019.39 1019.27 1019.08 1018.83 1018.52 1018.15 1017.73 1017.26 1016.76 1016.21
1005.30 1005.77 1006.41 1007.18 1008.04 1008.95 1009.85 1010.74 1011.57 1012.34 1013.03 1013.66 1014.21 1014.72 1015.18 1015.61 1016.02 1016.42 1016.81 1017.18 1017.53 1017.85 1018.15 1018.41 1018.64 1018.85 1019.03 1019.19 1019.33 1019.46 1019.55 1019.61 1019.62 1019.58 1019.47 1019.29 1019.04 1018.71 1018.32 1017.87 1017.37 1016.82 1016.23
1005.32 1005.75 1006.37 1007.15 1008.03 1008.97 1009.91 1010.81 1011.65 1012.41 1013.09 1013.68 1014.21 1014.69 1015.15 1015.58 1016.01 1016.44 1016.86 1017.27 1017.66 1018.02 1018.34 1018.62 1018.86 1019.06 1019.23 1019.39 1019.52 1019.63 1019.72 1019.78 1019.80 1019.76 1019.66 1019.48 1019.23 1018.91 1018.52 1018.07 1017.55 1016.99 1016.37
1005.48 1005.87 1006.49 1007.28 1008.19 1009.15 1010.11 1011.04 1011.88 1012.64 1013.30 1013.88 1014.39 1014.85 1015.29 1015.73 1016.17 1016.62 1017.08 1017.52 1017.94 1018.33 1018.67 1018.96 1019.20 1019.40 1019.55 1019.68 1019.79 1019.87 1019.93 1019.97 1019.97 1019.92 1019.81 1019.64 1019.40 1019.09 1018.71 1018.27 1017.76 1017.20 1016.57
1005.83 1006.21 1006.83 1007.63 1008.56 1009.54 1010.52 1011.46 1012.32 1013.07 1013.72 1014.28 1014.77 1015.22 1015.65 1016.08 1016.52 1016.98 1017.46 1017.93 1018.37 1018.78 1019.13 1019.43 1019.66 1019.84 1019.97 1020.06 1020.13 1020.16 1020.18 1020.17 1020.13 1020.06 1019.93 1019.75 1019.51 1019.21 1018.84 1018.41 1017.93 1017.37 1016.76
1006.43 1006.82 1007.44 1008.24 1009.17 1010.17 1011.16 1012.11 1012.97 1013.72 1014.36 1014.91 1015.38 1015.81 1016.22 1016.64 1017.08 1017.54 1018.01 1018.48 1018.93 1019.34 1019.70 1019.99 1020.22 1020.37 1020.47 1020.52 1020.53 1020.51 1020.47 1020.40 1020.30 1020.17 1020.01 1019.79 1019.53 1019.22 1018.86 1018.44 1017.96 1017.43 1016.83
1007.33 1007.71 1008.33 1009.13 1010.06 1011.05 1012.04 1012.98 1013.84 1014.59 1015.23 1015.77 1016.23 1016.64 1017.03 1017.42 1017.83 1018.27 1018.72 1019.17 1019.61 1020.00 1020.35 1020.62 1020.82 1020.95 1021.01 1021.02 1020.97 1020.89 1020.77 1020.63 1020.46 1020.26 1020.03 1019.76 1019.46 1019.11 1018.72 1018.29 1017.82 1017.29 1016.70
1008.51 1008.90 1009.50 1010.28 1011.18 1012.15 1013.13 1014.06 1014.91 1015.66 1016.29 1016.82 1017.27 1017.66 1018.03 1018.39 1018.76 1019.15 1019.56 1019.97 1020.37 1020.73 1021.04 1021.28 1021.45 1021.54 1021.56 1021.52 1021.41 1021.26 1021.07 1020.84 1020.58 1020.30 1019.98 1019.63 1019.25 1018.85 1018.41 1017.94 1017.44 1016.90 1016.32
1009.95 1010.32 1010.90 1011.64 1012.51 1013.44 1014.38 1015.29 1016.12 1016.86 1017.49 1018.02 1018.45 1018.83 1019.16 1019.49 1019.81 1020.14 1020.49 1020.83 1021.17 1021.47 1021.73 1021.92 1022.05 1022.10 1022.07 1021.97 1021.81 1021.59 1021.32 1021.00 1020.65 1020.26 1019.84 1019.40 1018.93 1018.43 1017.92 1017.40 1016.85 1016.28 1015.69
1011.57 1011.92 1012.45 1013.14 1013.95 1014.82 1015.72 1016.59 1017.40 1018.12 1018.74 1019.26 1019.69 1020.05 1020.35 1020.63 1020.90 1021.17 1021.44 1021.70 1021.96 1022.19 1022.37 1022.51 1022.58 1022.57 1022.50 1022.34 1022.12 1021.83 1021.48 1021.08 1020.63 1020.14 1019.62 1019.06 1018.48 1017.89 1017.29 1016.69 1016.08 1015.46 1014.84
1013.27 1013.60 1014.08 1014.70 1015.43 1016.24 1017.07 1017.89 1018.67 1019.37 1019.98 1020.49 1020.90 1021.24 1021.52 1021.76 1021.97 1022.16 1022.35 1022.54 1022.70 1022.85 1022.96 1023.02 1023.02 1022.96 1022.82 1022.61 1022.32 1021.97 1021.54 1021.06 1020.52 1019.93 1019.30 1018.64 1017.96 1017.27 1016.58 1015.89 1015.21 1014.54 1013.88
1014.97 1015.26 1015.68 1016.23 1016.88 1017.61 1018.37 1019.14 1019.86 1020.53 1021.12 1021.61 1022.02 1022.34 1022.59 1022.79 1022.95 1023.09 1023.20 1023.30 1023.38 1023.44 1023.46 1023.44 1023.37 1023.23 1023.03 1022.76 1022.41 1021.98 1021.49 1020.93 1020.30 1019.63 1018.92 1018.17 1017.40 1016.62 1015.85 1015.08 1014.34 1013.61 1012.90
1016.57 1016.82 1017.19 1017.68 1018.25 1018.90 1019.59 1020.29 1020.96 1021.59 1022.14 1022.62 1023.01 1023.32 1023.55 1023.72 1023.84 1023.92 1023.97 1023.99 1023.99 1023.97 1023.91 1023.80 1023.65 1023.44 1023.17 1022.82 1022.40 1021.91 1021.34 1020.72 1020.03 1019.29 1018.51 1017.69 1016.86 1016.02 1015.18 1014.36 1013.56 1012.78 1012.04
1018.03 1018.26 1018.59 1019.01 1019.52 1020.10 1020.71 1021.34 1021.96 1022.54 1023.06 1023.52 1023.88 1024.17 1024.39 1024.53 1024.62 1024.66 1024.66 1024.63 1024.56 1024.45 1024.31 1024.13 1023.90 1023.60 1023.25 1022.83 1022.33 1021.77 1021.15 1020.46 1019.72 1018.93 1018.11 1017.25 1016.39 1015.51 1014.64 1013.78 1012.95 1012.14 1011.35
1019.32 1019.54 1019.85 1020.24 1020.70 1021.21 1021.77 1022.34 1022.90 1023.43 1023.91 1024.33 1024.68 1024.95 1025.14 1025.27 1025.33 1025.34 1025.30 1025.22 1025.09 1024.92 1024.71 1024.45 1024.13 1023.75 1023.32 1022.82 1022.25 1021.62 1020.94 1020.21 1019.43 1018.61 1017.76 1016.89 1016.01 1015.13 1014.25 1013.39 1012.53 1011.70 1010.89
1020.45 1020.69 1021.00 1021.38 1021.81 1022.28 1022.79 1023.30 1023.81 1024.29 1024.73 1025.11 1025.43 1025.67 1025.85 1025.95 1026.00 1025.98 1025.90 1025.78 1025.60 1025.38 1025.09 1024.76 1024.36 1023.91 1023.39 1022.81 1022.18 1021.49 1020.75 1019.98 1019.17 1018.34 1017.49 1016.63 1015.77 1014.90 1014.03 1013.17 1012.32 1011.48 1010.66
1021.47 1021.75 1022.08 1022.46 1022.88 1023.33 1023.81 1024.28 1024.74 1025.17 1025.56 1025.89 1026.17 1026.38 1026.53 1026.61 1026.62 1026.58 1026.47 1026.31 1026.09 1025.80 1025.46 1025.06 1024.59 1024.06 1023.47 1022.82 1022.12 1021.38 1020.61 1019.80 1018.99 1018.16 1017.32 1016.48 1015.64 1014.80 1013.96 1013.12 1012.29 1011.45 1010.62
1022.42 1022.74 1023.11 1023.51 1023.94 1024.39 1024.84 1025.27 1025.68 1026.06 1026.40 1026.69 1026.91 1027.08 1027.19 1027.23 1027.21 1027.13 1026.99 1026.78 1026.51 1026.18 1025.78 1025.31 1024.78 1024.18 1023.53 1022.83 1022.08 1021.31 1020.51 1019.69 1018.88 1018.06 1017.25 1016.44 1015.64 1014.84 1014.03 1013.22 1012.40 1011.58 1010.75
1023.34 1023.71 1024.12 1024.55 1025.00 1025.44 1025.87 1026.27 1026.64 1026.97 1027.25 1027.47 1027.64 1027.75 1027.80 1027.79 1027.73 1027.60 1027.41 1027.16 1026.84 1026.45 1026.00 1025.48 1024.90 1024.26 1023.56 1022.82 1022.05 1021.26 1020.46 1019.65 1018.85 1018.06 1017.28 1016.51 1015.75 1014.99 1014.22 1013.44 1012.65 1011.84 1011.02
1024.26 1024.67 1025.12 1025.57 1026.03 1026.46 1026.87 1027.24 1027.56 1027.83 1028.05 1028.21 1028.31 1028.36 1028.34 1028.28 1028.15 1027.96 1027.72 1027.42 1027.05 1026.61 1026.12 1025.56 1024.94 1024.27 1023.56 1022.81 1022.03 1021.25 1020.46 1019.68 1018.92 1018.16 1017.43 1016.70 1015.98 1015.26 1014.52 1013.77 1013.00 1012.22 1011.41
1025.19 1025.63 1026.09 1026.56 1027.00 1027.42 1027.80 1028.13 1028.40 1028.61 1028.76 1028.86 1028.89 1028.86 1028.78 1028.65 1028.46 1028.21 1027.91 1027.55 1027.14 1026.66 1026.13 1025.55 1024.91 1024.24 1023.53 1022.79 1022.04 1021.29 1020.54 1019.80 1019.08 1018.38 1017.69 1017.01 1016.32 1015.64 1014.94 1014.22 1013.48 1012.72 1011.95
1026.12 1026.56 1027.02 1027.47 1027.89 1028.28 1028.61 1028.89 1029.11 1029.26 1029.35 1029.38 1029.35 1029.25 1029.11 1028.91 1028.66 1028.35 1028.00 1027.60 1027.14 1026.64 1026.09 1025.50 1024.87 1024.21 1023.52 1022.82 1022.11 1021.41 1020.72 1020.03 1019.37 1018.71 1018.07 1017.43 1016.79 1016.14 1015.48 1014.79 1014.09 1013.37 1012.64
Thickness
5512 5514 5516 5519 5520 5522 5524 5527 5529 5530 5531 5532 5534 5535 5536 5537 5538 5538 5539 5540 5541 5541 5541 5541 5541 5541 5540 5540 5538 5537 5537 5536 5536 5536 5533 5530 5528 5526 5523 5521 5520 5518 5517
5503 5505 5507 5510 5511 5513 5516 5518 5519 5521 5522 5523 5525 5526 5527 5528 5529 5530 5530 5531 5531 5532 5532 5532 5533 5533 5533 5532 5531 5531 5530 5529 5528 5528 5526 5523 5521 5519 5516 5515 5513 5511 5511
5494 5496 5498 5500 5502 5505 5507 5509 5510 5512 5513 5514 5515 5516 5517 5518 5519 5520 5521 5522 5522 5523 5523 5524 5524 5525 5525 5524 5524 5523 5523 5522 5521 5520 5519 5516 5513 5511 5510 5508 5506 5505 5504
5485 5487 5489 5491 5494 5496 5498 5499 5501 5503 5504 5505 5506 5506 5507 5509 5509 5510 5511 5512 5513 5514 5514 5515 5516 5516 5516 5516 5516 5516 5515 5515 5514 5513 5511 5509 5507 5504 5502 5501 5500 5499 5498
5475 5478 5479 5481 5484 5486 5488 5490 5491 5493 5495 5496 5496 5497 5498 5499 5500 5500 5502 5503 5504 5505 5505 5506 5506 5506 5506 5507 5507 5508 5508 5507 5506 5505 5504 5502 5500 5497 5495 5493 5493 5492 5492
5466 5468 5469 5471 5473 5475 5478 5480 5482 5484 5485 5486 5487 5488 5489 5489 5489 5490 5492 5493 5494 5495 5496 5497 5498 5498 5497 5497 5498 5498 5498 5499 5499 5497 5497 5496 5495 5491 5488 5486 5485 5484 5485
5457 5458 5459 5460 5462 5465 5467 5470 5472 5474 5475 5476 5477 5478 5479 5480 5480 5481 5481 5483 5484 5485 5486 5487 5488 5489 5489 5490 5490 5489 5490 5490 5490 5490 5490 5489 5488 5486 5483 5480 5478 5477 5476
5447 5448 5449 5450 5452 5455 5457 5460 5462 5464 5466 5466 5467 5467 5469 5470 5470 5471 5471 5472 5473 5474 5476 5477 5479 5480 5480 5481 5481 5482 5482 5483 5482 5482 5483 5483 5481 5479 5477 5474 5473 5470 5469
5437 5438 5439 5440 5442 5444 5447 5449 5451 5453 5455 5456 5457 5457 5458 5459 5459 5460 5460 5462 5463 5464 5466 5467 5468 5470 5471 5471 5472 5474 5475 5475 5474 5474 5475 5474 5474 5472 5470 5467 5466 5464 5465
5428 5428 5429 5430 5432 5433 5436 5437 5439 5441 5443 5445 5445 5446 5447 5449 5448 5449 5450 5452 5454 5455 5456 5458 5458 5460 5461 5461 5463 5465 5467 5467 5467 5468 5468 5468 5467 5466 5463 5461 5460 5460 5460
5417 5418 5419 5420 5422 5423 5425 5426 5428 5430 5432 5434 5435 5435 5436 5438 5438 5439 5440 5442 5443 5445 5447 5448 5449 5449 5451 5452 5454 5456 5457 5457 5458 5459 5460 5460 5460 5459 5457 5456 5454 5454 5455
5407 5409 5410 5410 5411 5412 5414 5415 5417 5418 5421 5422 5424 5425 5425 5426 5427 5428 5429 5431 5432 5434 5436 5437 5439 5439 5441 5443 5444 5446 5446 5447 5448 5450 5452 5453 5453 5452 5451 5450 5449 5448 5448
5398 5399 5400 5401 5401 5402 5403 5405 5406 5407 5409 5411 5413 5414 5415 5416 5417 5418 5419 5420 5422 5423 5426 5427 5428 5429 5431 5433 5435 5436 5436 5438 5440 5441 5444 5445 5444 5444 5443 5443 5443 5443 5443
5389 5390 5391 5391 5392 5392 5392 5393 5394 5397 5398 5400 5401 5403 5404 5406 5407 5408 5409 5410 5412 5414 5416 5417 5418 5420 5421 5423 5425 5427 5429 5430 5432 5433 5434 5436 5436 5437 5437 5438 5438 5438 5438
5380 5380 5381 5381 5381 5382 5382 5382 5384 5386 5387 5389 5391 5392 5395 5397 5397 5398 5400 5402 5403 5404 5406 5407 5409 5411 5414 5416 5418 5419 5420 5422 5423 5425 5426 5428 5430 5431 5431 5431 5432 5432 5433
5369 5370 5371 5371 5371 5372 5373 5374 5374 5375 5376 5378 5379 5381 5384 5385 5387 5389 5390 5391 5393 5394 5396 5398 5401 5403 5405 5407 5409 5411 5412 5414 5416 5418 5420 5421 5423 5424 5425 5425 5426 5427 5428
5358 5359 5360 5361 5361 5362 5362 5364 5366 5367 5367 5369 5370 5372 5374 5376 5378 5379 5381 5382 5383 5385 5387 5389 5392 5394 5396 5398 5400 5402 5404 5407 5409 5411 5413 5415 5417 5418 5418 5420 5420 5421 5422
5348 5348 5349 5350 5351 5352 5352 5354 5355 5357 5360 5362 5362 5363 5365 5367 5369 5370 5372 5373 5375 5377 5379 5381 5383 5385 5387 5390 5392 5394 5396 5398 5401 5404 5406 5408 5410 5412 5413 5414 5415 5415 5416
5338 5339 5340 5341 5341 5342 5343 5344 5345 5347 5349 5351 5353 5355 5356 5358 5360 5361 5363 5365 5367 5369 5370 5372 5374 5377 5379 5382 5384 5386 5389 5392 5394 5397 5399 5402 5404 5405 5407 5408 5409 5409 5410
5329 5329 5329 5330 5332 5332 5333 5334 5336 5338 5340 5342 5344 5346 5347 5348 5351 5353 5354 5356 5358 5360 5362 5364 5366 5369 5371 5374 5377 5379 5382 5385 5387 5390 5393 5396 5398 5400 5401 5402 5404 5404 5405
5321 5321 5320 5321 5322 5322 5323 5324 5326 5328 5330 5332 5334 5336 5337 5339 5342 5344 5345 5347 5349 5351 5353 5356 5359 5362 5365 5367 5370 5373 5376 5379 5382 5385 5387 5389 5392 5393 5395 5396 5398 5399 5399
5312 5312 5312 5312 5313 5313 5314 5315 5316 5318 5320 5322 5325 5326 5328 5330 5333 5335 5336 5338 5340 5342 5345 5348 5351 5355 5358 5361 5363 5366 5370 5373 5376 5379 5381 5384 5386 5387 5389 5391 5392 5393 5394
5305 5304 5304 5304 5304 5304 5305 5306 5307 5308 5310 5312 5315 5317 5319 5321 5323 5325 5327 5329 5332 5334 5337 5341 5344 5348 5351 5354 5357 5360 5364 5367 5369 5372 5375 5378 5380 5382 5384 5385 5387 5388 5389
5297 5297 5296 5296 5296 5296 5296 5297 5297 5298 5300 5303 5305 5307 5309 5311 5313 5316 5318 5321 5324 5327 5330 5333 5337 5341 5344 5347 5351 5354 5357 5360 5363 5366 5369 5372 5375 5377 5379 5380 5382 5383 5384
5291 5290 5289 5289 5288 5288 5288 5289 5289 5290 5292 5294 5296 5298 5300 5302 5305 5308 5311 5314 5316 5320 5323 5327 5331 5334 5338 5341 5345 5348 5352 5355 5357 5361 5364 5366 5369 5371 5374 5375 5377 5378 5380
5284 5283 5282 5282 5281 5281 5281 5281 5281 5282 5284 5285 5287 5289 5291 5293 5296 5300 5303 5306 5309 5313 5316 5320 5324 5327 5331 5335 5339 5343 5346 5349 5353 5356 5359 5361 5364 5367 5369 5371 5373 5375 5376